| time (UTC) | temp F | wind direction | speed knots | gust knots | rain 1hr in | rain 24hr in | rain mn in | humidity % | barometer mb |
| 20260503225614 | 47 | 208 | 1.7 | 3.5 | 0.00 | 0.00 | 0.00 | 53 | 1015.0 |
| 20260503224550 | 47 | 220 | 0.9 | 1.7 | 0.00 | 0.00 | 0.00 | 52 | 1015.3 |
| 20260503223547 | 47 | 217 | 1.7 | 3.5 | 0.00 | 0.00 | 0.00 | 52 | 1015.2 |
| 20260503222546 | 48 | 217 | 1.7 | 1.7 | 0.00 | 0.00 | 0.00 | 52 | 1015.3 |
| 20260503221544 | 48 | 225 | 0.9 | 5.2 | 0.00 | 0.00 | 0.00 | 52 | 1015.3 |
| 20260503220543 | 48 | 212 | 1.7 | 18.2 | 0.00 | 0.00 | 0.00 | 52 | 1015.4 |
| 20260503215539 | 48 | 221 | 1.7 | 8.7 | 0.00 | 0.00 | 0.00 | 52 | 1015.3 |
| 20260503214557 | 48 | 207 | 1.7 | 3.5 | 0.00 | 0.00 | 0.00 | 51 | 1015.5 |
| 20260503213556 | 49 | 205 | 1.7 | 4.3 | 0.00 | 0.00 | 0.00 | 52 | 1015.5 |
| 20260503212553 | 49 | 214 | 1.7 | 7.8 | 0.00 | 0.00 | 0.00 | 52 | 1015.5 |
| 20260503211531 | 49 | 215 | 0.9 | 7.8 | 0.00 | 0.00 | 0.00 | 52 | 1015.6 |
| 20260503210529 | 49 | 194 | 0.9 | 5.2 | 0.00 | 0.00 | 0.00 | 51 | 1015.7 |
| 20260503205527 | 49 | 225 | 0.9 | 1.7 | 0.00 | 0.00 | 0.00 | 50 | 1015.8 |
| 20260503204526 | 50 | 220 | 1.7 | 9.6 | 0.00 | 0.00 | 0.00 | 49 | 1015.9 |
| 20260503203543 | 50 | 207 | 0.9 | 7.8 | 0.00 | 0.00 | 0.00 | 50 | 1016.0 |
| 20260503202521 | 50 | 217 | 0.9 | 1.7 | 0.00 | 0.00 | 0.00 | 50 | 1016.0 |
| 20260503201559 | 50 | 196 | 1.7 | 5.2 | 0.00 | 0.00 | 0.00 | 50 | 1016.0 |
| 20260503200517 | 50 | 202 | 0.9 | 4.3 | 0.00 | 0.00 | 0.00 | 50 | 1016.1 |
| 20260503195515 | 50 | 225 | 0.9 | 5.2 | 0.00 | 0.00 | 0.00 | 50 | 1016.1 |
| 20260503194513 | 51 | 213 | 0.9 | 3.5 | 0.00 | 0.00 | 0.00 | 50 | 1016.2 |
| 20260503193511 | 51 | 212 | 0.9 | 1.7 | 0.00 | 0.00 | 0.00 | 50 | 1016.3 |
| 20260503192509 | 51 | 217 | 0.9 | 6.1 | 0.00 | 0.00 | 0.00 | 49 | 1016.3 |
| 20260503191548 | 51 | 207 | 1.7 | 5.2 | 0.00 | 0.00 | 0.00 | 49 | 1016.2 |
| 20260503190526 | 52 | 212 | 0.9 | 4.3 | 0.00 | 0.00 | 0.00 | 49 | 1016.2 |
| 20260503185503 | 52 | 209 | 0.9 | 2.6 | 0.00 | 0.00 | 0.00 | 48 | 1016.3 |
| 20260503184502 | 52 | 198 | 1.7 | 5.2 | 0.00 | 0.00 | 0.00 | 48 | 1016.3 |
| 20260503183459 | 53 | 211 | 1.7 | 9.6 | 0.00 | 0.00 | 0.00 | 48 | 1016.2 |
| 20260503182457 | 53 | 205 | 1.7 | 2.6 | 0.00 | 0.00 | 0.00 | 48 | 1016.2 |
| 20260503181456 | 54 | 202 | 0.9 | 4.3 | 0.00 | 0.00 | 0.00 | 47 | 1016.2 |
| 20260503180513 | 54 | 222 | 0.9 | 8.7 | 0.00 | 0.00 | 0.00 | 46 | 1016.3 |
| 20260503175511 | 55 | 192 | 1.7 | 9.6 | 0.00 | 0.00 | 0.00 | 45 | 1016.3 |
| 20260503174449 | 55 | 193 | 0.9 | 3.5 | 0.00 | 0.00 | 0.00 | 45 | 1016.3 |
| 20260503173448 | 56 | 215 | 0.9 | 6.1 | 0.00 | 0.00 | 0.00 | 44 | 1016.3 |
| 20260503172506 | 56 | 215 | 0.9 | 4.3 | 0.00 | 0.00 | 0.00 | 44 | 1016.3 |
| 20260503171444 | 57 | 225 | 0.9 | 1.7 | 0.00 | 0.00 | 0.00 | 44 | 1016.4 |
| 20260503170442 | 57 | 212 | 1.7 | 8.7 | 0.00 | 0.00 | 0.00 | 43 | 1016.5 |